[[{"header":{"parameterUnit":"m.s-1","parameterCategory":1,"la1":30.2992,"la2":30.254,"lo1":-89.0895,"lo2":-89.0443,"dy":0.0025,"dx":0.0025,"nx":19,"ny":19,"refTime":"2026-04-12T09:00:00:Z","depth":0,"parameterNumber":2,"parameterNumberName":"U-component_of_WINDS"},"data":[0,0,0,-0.3687,-0.3687,-0.3636,-0.3636,-0.3594,-0.3593,0,0,0,0,0,0,0,0,0,0,0,-0.3716,-0.3716,-0.3688,-0.3687,-0.3636,-0.3636,-0.3594,-0.3593,0,0,0,0,0,0,0,0,0,0,0,-0.3716,-0.3716,-0.3716,-0.3686,-0.3636,-0.3636,-0.3594,-0.3624,0,0,0,0,0,0,0,0,0,0,-0.3669,-0.3708,-0.3716,-0.3716,-0.3686,-0.3636,-0.3636,-0.3625,-0.3622,-0.3626,0,-0.3633,0,-0.3613,-0.3592,-0.3592,0,0,0,-0.3677,-0.3711,-0.3685,-0.3716,-0.3686,-0.3636,-0.3656,-0.3623,-0.362,-0.3622,-0.3632,-0.363,-0.3612,-0.3592,-0.3592,-0.3648,-0.3649,0,0,-0.368,-0.3714,-0.3688,-0.3684,-0.3692,-0.3658,-0.3655,-0.3621,-0.3634,-0.3632,-0.3628,-0.3611,-0.3592,-0.3592,-0.3648,-0.3649,0,0,0,-0.3694,-0.3716,-0.3691,-0.3686,-0.3675,-0.3657,-0.3653,-0.3635,-0.3624,-0.3628,-0.3611,-0.3592,-0.3591,-0.3647,-0.3648,-0.3719,0,0,0,-0.3695,-0.3725,-0.3693,-0.3713,-0.3676,-0.3654,-0.3669,-0.3626,-0.3621,-0.3611,-0.3592,-0.3591,-0.3646,-0.3647,-0.3715,-0.3747,0,0,0,-0.3715,-0.3727,-0.3724,-0.3715,-0.3694,-0.3654,-0.3641,-0.3624,-0.3612,-0.3592,-0.3591,-0.3645,-0.3647,-0.3712,-0.3742,-0.3774,0,0,0,-0.3745,-0.3786,-0.3726,-0.3765,-0.3695,-0.3698,-0.364,-0.364,-0.3632,-0.3592,-0.3646,-0.3648,-0.3711,-0.3738,-0.3771,-0.3809,-0.3828,0,0,-0.3816,-0.3796,-0.3817,-0.3761,-0.3784,-0.3703,-0.3735,-0.3695,-0.3661,-0.3655,-0.3656,-0.3716,-0.3741,-0.3773,-0.3916,-0.3931,0,0,0,-0.3851,-0.3867,-0.3865,-0.3859,-0.3829,-0.3807,-0.3757,-0.3743,-0.3736,-0.3665,-0.3734,-0.3748,-0.3766,-0.3783,-0.3795,-0.3809,-0.3656,-0.3656,-0.3656,-0.4003,-0.3959,-0.3991,-0.394,-0.3935,-0.3884,-0.3876,-0.3847,-0.3803,-0.382,-0.3819,-0.3911,-0.3932,-0.3941,-0.3956,-0.3833,-0.3833,-0.3834,-0.3834,-0.4106,-0.4123,-0.4063,-0.4073,-0.4026,-0.4034,-0.3987,-0.3955,-0.3957,-0.3908,-0.3921,-0.3874,-0.3959,-0.397,-0.3839,-0.3838,-0.3837,-0.3837,-0.3836,-0.4203,-0.4204,-0.4184,-0.4172,-0.4167,-0.4113,-0.4118,-0.4074,-0.4032,-0.4045,-0.404,-0.4039,-0.4035,-0.4045,-0.4046,-0.4046,-0.4046,-0.4046,-0.4047,-0.4313,-0.4289,-0.4298,-0.427,-0.4261,-0.4244,-0.4193,-0.4183,-0.4161,-0.4128,-0.4128,-0.4084,-0.3975,-0.395,-0.4051,-0.4051,-0.405,-0.405,-0.4049,-0.4438,-0.4403,-0.4418,-0.4409,-0.4373,-0.4373,-0.4315,-0.4299,-0.4284,-0.4288,-0.424,-0.4166,-0.4143,-0.4132,-0.4112,-0.4248,-0.4248,-0.4248,-0.4248,-0.4523,-0.4505,-0.4511,-0.45,-0.4484,-0.4434,-0.4454,-0.4415,-0.437,-0.4358,-0.4331,-0.4299,-0.429,-0.4272,-0.4258,-0.4239,-0.4405,-0.4405,-0.4405,-0.4599,-0.4578,-0.4604,-0.4559,-0.4528,-0.4503,-0.452,-0.4511,-0.4451,-0.4411,-0.4349,-0.4342,-0.429,-0.4274,-0.4235,-0.4215,-0.4178,0,0]},{"header":{"parameterUnit":"m.s-1","parameterCategory":1,"la1":30.2992,"la2":30.254,"lo1":-89.0895,"lo2":-89.0443,"dy":0.0025,"dx":0.0025,"nx":19,"ny":19,"refTime":"2026-04-12T09:00:00:Z","depth":0,"parameterNumber":3,"parameterNumberName":"V-component_of_WINDS"},"data":[0,0,0,2.4103,2.4102,2.4059,2.4059,2.4018,2.4018,0,0,0,0,0,0,0,0,0,0,0,2.4127,2.4127,2.4103,2.4102,2.4059,2.4059,2.4018,2.4018,0,0,0,0,0,0,0,0,0,0,0,2.4127,2.4127,2.4127,2.4102,2.4059,2.4059,2.4018,2.4045,0,0,0,0,0,0,0,0,0,0,2.4085,2.4117,2.4127,2.4127,2.4102,2.4059,2.4059,2.4046,2.4044,2.4045,0,2.405,0,2.4034,2.4017,2.4016,0,0,0,2.4094,2.412,2.4099,2.4127,2.4102,2.4059,2.4076,2.4045,2.4042,2.4042,2.405,2.4048,2.4033,2.4016,2.4016,2.4056,2.4057,0,0,2.4096,2.4124,2.4101,2.4097,2.4106,2.4078,2.4075,2.4043,2.4052,2.4049,2.4046,2.4033,2.4016,2.4016,2.4056,2.4056,0,0,0,2.4109,2.4126,2.4105,2.4099,2.409,2.4077,2.4073,2.4054,2.4045,2.4046,2.4032,2.4016,2.4016,2.4055,2.4056,2.4112,0,0,0,2.411,2.4133,2.4107,2.4123,2.4091,2.4072,2.4086,2.4047,2.4043,2.4032,2.4016,2.4016,2.4054,2.4055,2.4109,2.4133,0,0,0,2.4126,2.4135,2.4133,2.4125,2.4107,2.4072,2.4061,2.4046,2.4035,2.4016,2.4016,2.4054,2.4055,2.4106,2.4129,2.4152,0,0,0,2.415,2.4181,2.4134,2.4164,2.4108,2.4108,2.4061,2.4058,2.4049,2.4016,2.4054,2.4056,2.4105,2.4126,2.4149,2.4176,2.419,0,0,2.4205,2.4189,2.4205,2.4161,2.4176,2.4112,2.4135,2.4099,2.4072,2.4063,2.4063,2.411,2.4128,2.4151,2.426,2.4271,0,0,0,2.4231,2.4243,2.4241,2.4235,2.421,2.4191,2.415,2.4137,2.4128,2.4073,2.4124,2.4134,2.4146,2.4158,2.4167,2.4176,2.4063,2.4062,2.4062,2.4347,2.4312,2.4336,2.4296,2.4291,2.4249,2.4241,2.4217,2.4181,2.4194,2.419,2.4261,2.4275,2.4282,2.4292,2.4202,2.4202,2.4203,2.4203,2.4424,2.4434,2.4389,2.4396,2.4359,2.4363,2.4325,2.43,2.4298,2.426,2.4269,2.423,2.4296,2.4302,2.4207,2.4206,2.4205,2.4205,2.4205,2.4495,2.4494,2.448,2.4468,2.4464,2.4422,2.4423,2.4389,2.4356,2.4365,2.4358,2.4357,2.4351,2.4364,2.4365,2.4365,2.4365,2.4365,2.4365,2.4574,2.4556,2.4562,2.4541,2.4533,2.4518,2.4479,2.447,2.4451,2.4426,2.4425,2.4389,2.431,2.429,2.4369,2.4368,2.4368,2.4368,2.4367,2.4662,2.4637,2.4647,2.464,2.4612,2.461,2.4567,2.4553,2.454,2.4542,2.4504,2.4452,2.4432,2.4424,2.4408,2.4512,2.4512,2.4512,2.4512,2.4721,2.4709,2.4712,2.4703,2.469,2.4653,2.4664,2.4635,2.4599,2.459,2.457,2.4545,2.4539,2.4523,2.4513,2.4497,2.4622,2.4622,2.4622,2.4773,2.4759,2.4775,2.4743,2.472,2.47,2.471,2.4701,2.4655,2.4625,2.4581,2.4576,2.4537,2.4526,2.4493,2.4478,2.4448,0,0]}]]